Flag for Vatican City State Weather past 2 weeks in Vatican City, Vatican City State

Now
70 °F

Clear.


Feels Like: 70 °F
Forecast: 65 / 94 °F
Wind: 1 mph from East

Location: Rome / Ciampino

Current Time: Jul 3, 2015 at 4:46:59 AM

Latest Report: Jul 3, 2015 at 3:50 AM


Visibility: 10 mi

Pressure: 30.18 "Hg

Humidity: 83%

Dew point: 64 °F

Location of Vatican CityLocation

Historic Weather in Vatican City — Graph

°F

Vatican City temperature yesterday

Maximum temperature yesterday: 88 °F (at 12:20 PM)
Minimum temperature yesterday: 70 °F (at 1:50 AM)
Average temperature yesterday: 79 °F

Past Weeks' High & Low Weather Summary

 TemperatureHumidityPressure
High90 °F (Jul 1, 12:50 PM)94% (Jun 21, 2:15 AM)30.21 "Hg (Jun 21, 2:15 AM)
Low57 °F (Jun 21, 6:15 AM)19% (Jun 27, 2:15 PM)29.80 "Hg (Jun 19, 4:45 PM)
Average74 °F59%30.00 "Hg
* Reported Jun 18 3:45 AM — Jul 3 3:50 AM, Vatican City, Weather by CustomWeather, © 2015

Note: Actual official high and low records may vary slightly from our data, if they occured in-between our weather recording intervals... More about our weather records

Advertising

Vatican City weather history for previous 24 hours

 ConditionsComfort  
Time TempWeatherWind HumidityBarometerVisibility
3:50 AM
Fri, Jul 3
70 °FClear.1 mph83%30.18 "Hg10 mi
3:20 AM72 °FClear.5 mph78%30.18 "Hg10 mi
2:50 AM72 °FClear.1 mph78%30.21 "Hg10 mi
2:20 AM72 °FClear.2 mph73%30.21 "Hg10 mi
1:50 AM72 °FClear.3 mph78%30.21 "Hg10 mi
1:20 AM73 °FClear.1 mph74%30.21 "Hg10 mi
12:50 AM73 °FClear.2 mph74%30.21 "Hg10 mi
12:20 AM73 °FClear.1 mph74%30.21 "Hg10 mi
11:50 PM
Thu, Jul 2
77 °FPassing clouds.3 mph65%30.21 "HgN/A
11:20 PM77 °FClear.5 mph65%30.21 "Hg10 mi
10:50 PM77 °FClear.2 mph74%30.21 "Hg10 mi
9:50 PM77 °FClear.2 mph74%30.21 "Hg10 mi
9:20 PM79 °FSunny.2 mph70%30.18 "Hg10 mi
8:50 PM81 °FSunny.5 mph62%30.18 "Hg10 mi
7:50 PM82 °FSunny.5 mph58%30.18 "Hg10 mi
7:20 PM82 °FSunny.6 mph55%30.18 "Hg10 mi
6:50 PM84 °FSunny.7 mph51%30.18 "Hg10 mi
6:20 PM86 °FPassing clouds.6 mph46%30.18 "HgN/A
5:50 PM86 °FSunny.8 mph43%30.18 "Hg10 mi
5:20 PM86 °FPassing clouds.8 mph38%30.18 "HgN/A
4:50 PM86 °FPassing clouds.8 mph35%30.18 "HgN/A
4:20 PM88 °FPassing clouds.9 mph31%30.18 "HgN/A
3:50 PM88 °FPassing clouds.9 mph31%30.18 "HgN/A
3:20 PM88 °FSunny.8 mph31%30.18 "Hg10 mi
2:50 PM88 °FPassing clouds.8 mph29%30.18 "HgN/A
2:20 PM88 °FPassing clouds.9 mph29%30.18 "HgN/A
1:50 PM88 °FPassing clouds.8 mph31%30.18 "HgN/A
1:20 PM88 °FPassing clouds.8 mph31%30.18 "HgN/A
12:50 PM86 °FPassing clouds.8 mph33%30.18 "HgN/A
12:20 PM88 °FPassing clouds.7 mph31%30.18 "HgN/A
11:50 AM86 °FPassing clouds.7 mph35%30.18 "HgN/A
11:20 AM86 °FPassing clouds.8 mph35%30.18 "HgN/A
10:50 AM86 °FPassing clouds.8 mph35%30.18 "HgN/A
10:20 AM84 °FPassing clouds.7 mph40%30.18 "HgN/A
9:50 AM84 °FSunny.8 mph40%30.18 "Hg10 mi
9:20 AM82 °FPassing clouds.7 mph45%30.18 "HgN/A
8:50 AM81 °FSunny.2 mph58%30.18 "Hg10 mi
8:20 AM79 °FSunny.2 mph61%30.18 "Hg10 mi
7:50 AM75 °FSunny.2 mph69%30.18 "Hg10 mi
7:20 AM73 °FSunny.1 mph74%30.18 "Hg10 mi
6:50 AM72 °FSunny.2 mph73%30.18 "Hg10 mi
6:20 AM70 °FClear.3 mph73%30.18 "Hg10 mi
5:50 AM70 °FClear.2 mph73%30.15 "Hg10 mi
5:20 AM70 °FClear.3 mph73%30.15 "Hg10 mi
4:50 AM70 °FClear.2 mph69%30.15 "Hg6 mi
4:20 AM70 °FClear.5 mph73%30.15 "Hg6 mi
Weather by CustomWeather, © 2015

See weather overviewHow to use our weather pages